Regional Weather Roundup
Issued by NWS

Home | Current Version | Previous Version | Text Only | Print | Product List | Glossary On
Versions: 1 2 3 4 5 6 7 8 9 10 11 12 13 14 15 16 17 18 19 20 21 22 23 24 25 26 27 28 29 30 31 32 33 34 35 36 37 38 39 40 41 42 43 44 45 46 47 48 49 50
227
ASUS43 KTOP 300259
RWRKS

WEATHER ROUNDUP FOR KANSAS
NATIONAL WEATHER SERVICE GOODLAND KS
1000 PM CDT FRI JUL 29 2016

NOTE:  "FAIR" INDICATES FEW OR NO CLOUDS BELOW 12,000 FEET WITH NO
SIGNIFICANT WEATHER AND/OR OBSTRUCTIONS TO VISIBILITY.

KSZ001>006-013>018-027>032-041>047-300400-
NORTHWEST KANSAS

CITY           SKY/WX    TMP DP  RH WIND       PRES   REMARKS
GOODLAND       CLOUDY    67  63  87 SE8       30.09R
HAYS           CLEAR     75  59  57 E6        30.02R
HILL CITY      CLEAR     73  64  73 E6        30.03R
RUSSELL        PTCLDY    73  65  75 E6        30.00R
$$

KSZ061>065-074>080-084>089-300400-
SOUTHWEST KANSAS

CITY           SKY/WX    TMP DP  RH WIND       PRES   REMARKS
DODGE CITY     CLOUDY    74  67  78 SE6       30.06R
ELKHART          N/A     74  61  64 E10         N/A
GARDEN CITY    PTCLDY    74  66  76 E10       30.05S
GREAT BEND     CLEAR     77  64  65 SE7       30.02R
LIBERAL        CLOUDY    77  61  57 E10G16    30.05S
$$

KSZ066>073-081>083-090>101-300400-
SOUTHEAST KANSAS

CITY           SKY/WX    TMP DP  RH WIND       PRES   REMARKS
CHANUTE        CLEAR     77  70  79 NE5       29.97R
COFFEYVILLE    CLEAR     76  71  85 E3        29.96R
HUTCHINSON     CLEAR     75  69  81 E3        30.00R
NEWTON         MOCLDY    75  70  84 E5        30.02R
PARSONS        CLEAR     73  71  93 CALM      29.98R
WICHITA INTL   PTCLDY    79  68  69 SE5       29.99R
WICHITA JABRA  CLEAR     73  71  93 E5        30.00R
WICHITA MCCONL CLEAR     79  68  69 SE3       30.00R
WINFIELD       CLEAR     80  70  71 E5        29.99R
$$

KSZ007>012-019>026-033>040-048>060-102>105-300400-
NORTHEAST KANSAS

CITY           SKY/WX    TMP DP  RH WIND       PRES   REMARKS
CONCORDIA      CLEAR     71  65  81 E3        30.01R
EMPORIA        CLEAR     76  68  76 NE5       30.00R
LAWRENCE       CLEAR     71  65  81 NE7       29.99R
MANHATTAN      CLEAR     74  66  76 N3        29.99R
OLATHE IND     CLEAR     71  65  81 N7        30.00R
OLATHE EXE     CLEAR     76  62  62 N7        29.99R
SALINA         CLEAR     80  67  64 E6        29.99R
TOPEKA BILLARD CLEAR     74  65  73 NE6       29.99R
TOPEKA FORBES  CLEAR     75  66  73 NE3       30.00R
$$




USA.gov is the U.S. government's official web portal to all federal, state and local government web resources and services.